Regional Weather Roundup
Issued by NWS

Home | Current Version | Previous Version | Graphics & Text | Print | Product List | Glossary On
Versions: 1 2 3 4 5 6 7 8 9 10 11 12 13 14 15 16 17 18 19 20 21 22 23 24 25 26 27 28 29 30 31 32 33 34 35 36 37 38 39 40 41 42 43 44 45 46 47 48 49 50
651
ASUS45 KABQ 230010
RWRNM
NEW MEXICO REGIONAL WEATHER ROUNDUP
NATIONAL WEATHER SERVICE ALBUQUERQUE NM
500 PM MST WED FEB 22 2017

NOTE: "FAIR" MEANS FEW OR NO CLOUDS BELOW 12,000 FEET AGL WITH NO
       SIGNIFICANT WEATHER OR OBSTRUCTIONS TO VISION.

      THIS PRODUCT IS RELEASED AS TWO VERSIONS.  ONE VERSION NEAR
      THE TOP OF THE HOUR CONTAINING PRELIMINARY DATA FROM ALBUQUERQUE
      AND OTHER STATIONS.  A FINAL VERSION WITH ADDITIONAL DATA IS
      ISSUED ABOUT 10 MINUTES AFTER THE HOUR.

NMZ501-503-504-510>518-230100-
NORTHWEST PLATEAU/NORTHCENTRAL MOUNTAINS

CITY           SKY/WX    TMP DP  RH WIND       PRES   REMARKS
FARMINGTON     FAIR      59  18  20 SW20G32   29.81F
6HR MIN TEMP:  50; 6HR MAX TEMP:  64;

LOS ALAMOS     CLOUDY    51  27  38 SW7G23    29.97F
SANTA FE       CLOUDY    54  35  48 NE8       29.93F
6HR MIN TEMP:  53; 6HR MAX TEMP:  61;

TAOS             N/A     48  23  37 SW24      29.94F
ANGEL FIRE     LGT RAIN  35  32  89 E6        30.02F WCI  30

$$
NMZ402-403-502-505>509-230100-
WESTCENTRAL MOUNTAINS/SOUTHWEST MOUNTAINS

CITY           SKY/WX    TMP DP  RH WIND       PRES   REMARKS
GALLUP         CLOUDY    55  15  20 SW26G40   29.94F
6HR MIN TEMP:  53; 6HR MAX TEMP:  56;

GRANTS         FAIR      56  30  36 W9        29.97F
SILVER CITY    FAIR      67  32  26 W14       29.98F

$$
NMZ407-409-411-412-230100-
SOUTHERN DESERTS

CITY           SKY/WX    TMP DP  RH WIND       PRES   REMARKS
DEMING         FAIR      75  33  21 W15       29.91F
6HR MIN TEMP:  67; 6HR MAX TEMP:  76;

LAS CRUCES     FAIR      75  27  16 SW13      29.92F
HOLLOMAN AFB   FAIR      76  29  17 SW16      29.91F
ALAMOGORDO     FAIR      75  28  17 SW10G16   29.90F
T OR C         FAIR      74  26  16 W17G24    29.88S
6HR MIN TEMP:  66; 6HR MAX TEMP:  78;


$$
NMZ519>523-230100-
CENTRAL VALLEYS/CENTRAL HIGHLANDS

CITY           SKY/WX    TMP DP  RH WIND       PRES   REMARKS
ALBUQUERQUE    PTSUNNY   65  31  28 W23       29.88F
6HR MIN TEMP:  57; 6HR MAX TEMP:  66;

DOUBLE EAGLE   PTSUNNY   63  32  31 W22G33    29.92F
MORIARTY ARPT  MOCLDY    62  32  32 NW13      29.93F
6HR MIN TEMP:  62; 6HR MAX TEMP:  66;

CLINES CORNERS MOCLDY    55  29  36 W14       29.97F
6HR MIN TEMP:  55; 6HR MAX TEMP:  60;

BELEN          FAIR      68  29  23 W12G21    29.88F
6HR MIN TEMP:  62; 6HR MAX TEMP:  69;

SOCORRO        FAIR      74  22  14 SW16G23   29.86F
6HR MIN TEMP:  62; 6HR MAX TEMP:  76;


$$
NMZ524>526-539-540-230100-
SOUTHCENTRAL MOUNTAINS

CITY           SKY/WX    TMP DP  RH WIND       PRES   REMARKS
RUIDOSO        FAIR      61  27  27 SW17G28   30.01S

$$
NMZ527>531-230100-
NORTHEAST HIGHLANDS/NORTHEAST PLAINS

CITY           SKY/WX    TMP DP  RH WIND       PRES   REMARKS
RATON          FAIR      56   8  14 W21G36    29.88R
6HR MIN TEMP:  56; 6HR MAX TEMP:  67;

CLAYTON        FAIR      67  14  13 W24G31    29.82R
6HR MIN TEMP:  67; 6HR MAX TEMP:  77;


$$
NMZ532>537-230100-
EASTCENTRAL PLAINS

CITY           SKY/WX    TMP DP  RH WIND       PRES   REMARKS
TUCUMCARI      FAIR      73  30  20 W15       29.80F
6HR MIN TEMP:  73; 6HR MAX TEMP:  81;

CANNON AFB     CLEAR     78  29  16 S15       29.82F
6HR MIN TEMP:  72; 6HR MAX TEMP:  80;

CLOVIS AIRPORT FAIR      75  30  19 W17       29.83S

$$
NMZ028-029-538-230100-
SOUTHEAST PLAINS

CITY           SKY/WX    TMP DP  RH WIND       PRES   REMARKS
ROSWELL        FAIR      84  26  12 NW12        N/A
6HR MIN TEMP:  71; 6HR MAX TEMP:  85;

ARTESIA        FAIR      81  25  12 SW24G30   29.80S
CARLSBAD       FAIR      82  15   8 SW16      29.81F
6HR MIN TEMP:  77; 6HR MAX TEMP:  86;

HOBBS          CLEAR     81   9   6 SW12G17   29.84F


$$




USA.gov is the U.S. government's official web portal to all federal, state and local government web resources and services.